�������l�o���
Date,Time,MP-1(��Sv/h),MP-2(��Sv/h),MP-3(��Sv/h),MP-4(��Sv/h),MP-5(��Sv/h),MP-6(��Sv/h),MP-7(��Sv/h),MP-8(��Sv/h),����,����(m/s),���J
2024/05/10,00:00,0.492,0.751,0.477,0.944,0.677,0.308,0.546,0.512,���k��,5.9,��
2024/05/10,00:10,0.495,0.749,0.478,0.943,0.675,0.308,0.547,0.513,���k��,6.2,��
2024/05/10,00:20,0.495,0.750,0.475,0.944,0.676,0.307,0.548,0.512,���k��,6.4,��
2024/05/10,00:30,0.494,0.750,0.476,0.945,0.676,0.309,0.547,0.512,���k��,7.1,��
2024/05/10,00:40,0.493,0.749,0.475,0.943,0.675,0.308,0.548,0.511,���k��,6.9,��
2024/05/10,00:50,0.493,0.751,0.477,0.944,0.677,0.308,0.546,0.511,���k��,6.3,��
2024/05/10,01:00,0.494,0.749,0.477,0.942,0.676,0.307,0.546,0.512,���k��,5.3,��
2024/05/10,01:10,0.495,0.749,0.478,0.943,0.676,0.308,0.547,0.511,���k��,4.4,��
2024/05/10,01:20,0.493,0.748,0.476,0.945,0.675,0.308,0.548,0.511,���k��,4.4,��
2024/05/10,01:30,0.494,0.750,0.477,0.943,0.677,0.308,0.545,0.513,���k��,4.9,��
2024/05/10,01:40,0.492,0.749,0.476,0.944,0.677,0.309,0.546,0.512,��,3.5,��
2024/05/10,01:50,0.492,0.749,0.476,0.943,0.677,0.307,0.547,0.513,��,3.6,��
2024/05/10,02:00,0.495,0.751,0.476,0.945,0.678,0.309,0.547,0.511,���쐼,2.3,��
2024/05/10,02:10,0.495,0.749,0.476,0.944,0.676,0.309,0.547,0.511,���쐼,3.3,��
2024/05/10,02:20,0.494,0.749,0.477,0.943,0.676,0.309,0.548,0.511,���쐼,4.9,��
2024/05/10,02:30,0.494,0.749,0.476,0.945,0.676,0.308,0.547,0.512,�쐼,2.6,��
2024/05/10,02:40,0.494,0.749,0.477,0.943,0.675,0.309,0.548,0.511,�쐼,1.7,��
2024/05/10,02:50,0.494,0.750,0.477,0.945,0.675,0.308,0.548,0.510,�쐼,1.1,��
2024/05/10,03:00,0.493,0.749,0.477,0.944,0.674,0.308,0.547,0.511,�쐼,1.5,��
2024/05/10,03:10,0.493,0.750,0.476,0.946,0.677,0.308,0.548,0.511,�쐼,1.5,��
2024/05/10,03:20,0.494,0.750,0.476,0.944,0.674,0.307,0.547,0.512,�쐼,1.1,��
2024/05/10,03:30,0.493,0.750,0.476,0.944,0.677,0.308,0.547,0.512,�쐼,0.9,��
2024/05/10,03:40,0.494,0.751,0.476,0.944,0.676,0.308,0.547,0.511,�쐼,1.2,��
2024/05/10,03:50,0.493,0.750,0.475,0.945,0.677,0.306,0.546,0.512,��쐼,1.7,��
2024/05/10,04:00,0.493,0.748,0.475,0.942,0.676,0.309,0.546,0.512,���쐼,1.2,��
2024/05/10,04:10,0.493,0.753,0.475,0.945,0.675,0.309,0.548,0.511,��,1.7,��
2024/05/10,04:20,0.492,0.749,0.476,0.943,0.674,0.307,0.546,0.510,��쐼,1.7,��
2024/05/10,04:30,0.493,0.750,0.475,0.947,0.676,0.309,0.547,0.512,��쐼,1.7,��
2024/05/10,04:40,0.493,0.752,0.476,0.944,0.673,0.309,0.547,0.510,��쐼,1.1,��
2024/05/10,04:50,0.493,0.751,0.475,0.943,0.676,0.308,0.546,0.510,���쐼,2.0,��
2024/05/10,05:00,0.491,0.750,0.475,0.944,0.674,0.309,0.545,0.511,��,2.6,��
2024/05/10,05:10,0.494,0.750,0.477,0.945,0.675,0.308,0.548,0.510,��,2.0,��
2024/05/10,05:20,0.494,0.751,0.477,0.942,0.676,0.307,0.546,0.511,��,0.6,��
2024/05/10,05:30,0.492,0.751,0.477,0.944,0.676,0.308,0.546,0.510,�k��,0.6,��
2024/05/10,05:40,0.493,0.750,0.476,0.945,0.677,0.307,0.546,0.510,-,CALM,��
2024/05/10,05:50,0.494,0.749,0.477,0.946,0.677,0.308,0.547,0.510,�k,0.6,��
2024/05/10,06:00,0.494,0.750,0.476,0.945,0.675,0.309,0.547,0.509,�k,1.2,��
2024/05/10,06:10,0.492,0.750,0.476,0.945,0.676,0.309,0.545,0.511,�k�k��,2.0,��
2024/05/10,06:20,0.494,0.751,0.476,0.946,0.676,0.308,0.547,0.511,�k�k��,2.0,��
2024/05/10,06:30,0.493,0.753,0.477,0.945,0.676,0.310,0.548,0.512,���k��,2.3,��
2024/05/10,06:40,0.493,0.752,0.477,0.947,0.677,0.309,0.548,0.512,�k��,1.9,��
2024/05/10,06:50,0.496,0.754,0.477,0.944,0.675,0.308,0.548,0.511,�k�k��,1.9,��
2024/05/10,07:00,0.494,0.750,0.478,0.946,0.676,0.308,0.548,0.511,�k�k��,2.3,��
2024/05/10,07:10,0.495,0.751,0.477,0.945,0.678,0.307,0.549,0.511,�k��,2.8,��
2024/05/10,07:20,0.495,0.751,0.478,0.945,0.676,0.306,0.546,0.512,�k�k��,1.2,��
2024/05/10,07:30,0.494,0.751,0.477,0.948,0.678,0.308,0.550,0.511,�k��,2.3,��
2024/05/10,07:40,0.495,0.750,0.477,0.945,0.676,0.308,0.548,0.512,�k��,1.5,��
2024/05/10,07:50,0.494,0.751,0.476,0.946,0.676,0.308,0.548,0.512,�쐼,1.2,��
2024/05/10,08:00,0.496,0.751,0.476,0.946,0.677,0.307,0.548,0.512,��쐼,1.4,��
2024/05/10,08:10,0.496,0.751,0.475,0.946,0.675,0.308,0.547,0.511,��쓌,1.4,��
2024/05/10,08:20,0.493,0.750,0.474,0.948,0.674,0.306,0.549,0.511,��쓌,2.0,��
2024/05/10,08:30,0.495,0.751,0.477,0.946,0.677,0.308,0.549,0.511,�쓌,3.0,��
2024/05/10,08:40,0.494,0.749,0.478,0.945,0.676,0.308,0.546,0.510,�쓌,3.9,��
2024/05/10,08:50,0.494,0.752,0.476,0.948,0.676,0.307,0.548,0.509,��쓌,3.6,��
2024/05/10,09:00,0.494,0.752,0.478,0.947,0.676,0.308,0.547,0.511,�쓌,3.6,��
2024/05/10,09:10,0.494,0.753,0.478,0.949,0.676,0.309,0.548,0.510,��쓌,3.4,��
2024/05/10,09:20,0.494,0.752,0.480,0.947,0.677,0.309,0.547,0.510,��쓌,4.0,��
2024/05/10,09:30,0.496,0.752,0.477,0.946,0.677,0.308,0.545,0.511,��쓌,5.2,��
2024/05/10,09:40,0.493,0.754,0.476,0.948,0.677,0.308,0.547,0.510,��쓌,5.9,��
2024/05/10,09:50,0.497,0.752,0.477,0.947,0.678,0.307,0.547,0.512,��쓌,5.5,��
2024/05/10,10:00,0.495,0.753,0.478,0.950,0.679,0.308,0.546,0.510,��쓌,5.8,��
2024/05/10,10:10,0.494,0.754,0.477,0.949,0.679,0.309,0.546,0.510,��쓌,6.1,��
2024/05/10,10:20,0.497,0.755,0.477,0.949,0.679,0.308,0.547,0.511,��쓌,6.5,��
2024/05/10,10:30,0.496,0.754,0.479,0.947,0.678,0.308,0.546,0.510,��쓌,7.3,��
2024/05/10,10:40,0.497,0.755,0.479,0.950,0.679,0.308,0.546,0.509,��쓌,6.6,��
2024/05/10,10:50,0.497,0.754,0.479,0.949,0.679,0.309,0.547,0.512,��쓌,6.7,��
2024/05/10,11:00,0.496,0.755,0.479,0.950,0.681,0.309,0.547,0.511,��쓌,7.6,��
2024/05/10,11:10,0.497,0.756,0.479,0.951,0.679,0.309,0.547,0.511,��쓌,8.0,��
2024/05/10,11:20,0.498,0.756,0.478,0.949,0.683,0.310,0.547,0.511,��쓌,7.7,��
2024/05/10,11:30,0.498,0.756,0.478,0.949,0.681,0.310,0.547,0.511,��쓌,8.9,��
2024/05/10,11:40,0.498,0.757,0.480,0.945,0.680,0.309,0.548,0.510,��쓌,6.2,��
2024/05/10,11:50,0.496,0.757,0.480,0.946,0.680,0.309,0.547,0.512,��쓌,10.5,��
2024/05/10,12:00,0.498,0.758,0.479,0.949,0.683,0.310,0.547,0.511,��쓌,11.0,��
2024/05/10,12:10,0.498,0.757,0.481,0.946,0.684,0.309,0.549,0.511,��쓌,12.0,��
2024/05/10,12:20,0.499,0.761,0.480,0.948,0.682,0.311,0.548,0.511,��쓌,11.8,��
2024/05/10,12:30,0.498,0.761,0.480,0.947,0.684,0.310,0.548,0.511,��쓌,11.9,��
2024/05/10,12:40,0.497,0.761,0.480,0.948,0.683,0.310,0.548,0.512,��쓌,10.2,��
2024/05/10,12:50,0.497,0.760,0.479,0.950,0.683,0.311,0.547,0.512,��쓌,9.0,��
2024/05/10,13:00,0.499,0.762,0.482,0.952,0.684,0.310,0.550,0.512,��쓌,8.9,��
2024/05/10,13:10,0.499,0.759,0.481,0.951,0.684,0.311,0.549,0.510,��쓌,8.8,��
2024/05/10,13:20,0.500,0.760,0.482,0.952,0.685,0.311,0.547,0.512,��쓌,10.2,��
2024/05/10,13:30,0.499,0.760,0.482,0.952,0.684,0.310,0.548,0.512,��쓌,10.7,��
2024/05/10,13:40,0.501,0.759,0.482,0.951,0.686,0.312,0.548,0.512,��쓌,11.8,��
2024/05/10,13:50,0.500,0.761,0.481,0.951,0.686,0.311,0.548,0.512,��쓌,9.9,��
2024/05/10,14:00,0.501,0.763,0.482,0.953,0.686,0.310,0.549,0.512,��쓌,12.4,��
2024/05/10,14:10,0.500,0.763,0.482,0.951,0.686,0.311,0.550,0.512,��쓌,11.8,��
2024/05/10,14:20,0.499,0.759,0.480,0.950,0.686,0.311,0.549,0.511,��쓌,12.5,��
2024/05/10,14:30,0.500,0.761,0.481,0.950,0.688,0.312,0.548,0.511,��쓌,10.5,��
2024/05/10,14:40,0.501,0.761,0.483,0.949,0.685,0.311,0.547,0.512,��쓌,9.1,��
2024/05/10,14:50,0.500,0.761,0.482,0.949,0.687,0.311,0.549,0.512,��,6.0,��
2024/05/10,15:00,0.503,0.762,0.482,0.952,0.686,0.311,0.549,0.511,��,8.1,��
2024/05/10,15:10,0.501,0.762,0.482,0.952,0.685,0.311,0.549,0.513,��,8.7,��
2024/05/10,15:20,0.501,0.763,0.483,0.951,0.687,0.311,0.548,0.512,��쓌,9.6,��
2024/05/10,15:30,0.501,0.764,0.482,0.951,0.687,0.311,0.548,0.512,��,8.7,��
2024/05/10,15:40,0.501,0.763,0.484,0.953,0.687,0.312,0.548,0.512,��,8.5,��
2024/05/10,15:50,0.501,0.763,0.483,0.953,0.687,0.313,0.549,0.513,��,7.9,��
2024/05/10,16:00,0.500,0.764,0.483,0.952,0.689,0.313,0.548,0.513,��,8.5,��
2024/05/10,16:10,0.501,0.762,0.481,0.951,0.686,0.311,0.548,0.512,��,8.2,��
2024/05/10,16:20,0.501,0.761,0.484,0.951,0.686,0.312,0.549,0.512,��,9.4,��
2024/05/10,16:30,0.501,0.761,0.482,0.955,0.687,0.312,0.549,0.511,��,9.3,��
2024/05/10,16:40,0.500,0.763,0.482,0.955,0.688,0.311,0.549,0.512,��,7.7,��
2024/05/10,16:50,0.501,0.763,0.482,0.954,0.687,0.311,0.548,0.514,��,7.3,��
2024/05/10,17:00,0.501,0.763,0.482,0.954,0.688,0.312,0.548,0.511,��,7.5,��
2024/05/10,17:10,0.501,0.764,0.482,0.954,0.689,0.312,0.549,0.512,��,8.5,��
2024/05/10,17:20,0.500,0.763,0.484,0.953,0.689,0.312,0.549,0.513,��,8.4,��
2024/05/10,17:30,0.501,0.762,0.484,0.953,0.689,0.312,0.548,0.513,��,8.2,��
2024/05/10,17:40,0.500,0.765,0.481,0.956,0.688,0.312,0.547,0.514,��,7.4,��
2024/05/10,17:50,0.501,0.766,0.483,0.956,0.688,0.312,0.548,0.513,��쐼,7.8,��
2024/05/10,18:00,0.501,0.764,0.481,0.955,0.689,0.312,0.547,0.514,��,9.4,��
2024/05/10,18:10,0.500,0.766,0.482,0.956,0.689,0.312,0.548,0.513,��쐼,8.5,��
2024/05/10,18:20,0.500,0.766,0.482,0.956,0.691,0.312,0.547,0.513,��쐼,8.7,��
2024/05/10,18:30,0.501,0.768,0.482,0.955,0.689,0.312,0.548,0.515,��쐼,9.0,��
2024/05/10,18:40,0.503,0.768,0.483,0.959,0.689,0.310,0.546,0.514,��쐼,7.9,��
2024/05/10,18:50,0.501,0.768,0.481,0.959,0.689,0.312,0.548,0.513,��쐼,8.2,��
2024/05/10,19:00,0.502,0.769,0.481,0.956,0.691,0.312,0.547,0.514,��쐼,7.3,��
2024/05/10,19:10,0.499,0.768,0.483,0.958,0.690,0.311,0.549,0.514,��쐼,7.1,��
2024/05/10,19:20,0.502,0.767,0.484,0.955,0.691,0.311,0.550,0.514,��쐼,5.7,��
2024/05/10,19:30,0.501,0.768,0.484,0.956,0.692,0.312,0.548,0.513,��쐼,4.9,��
2024/05/10,19:40,0.500,0.768,0.486,0.957,0.691,0.314,0.550,0.516,��쐼,4.1,��
2024/05/10,19:50,0.501,0.767,0.485,0.957,0.691,0.314,0.549,0.514,��,3.6,��
2024/05/10,20:00,0.504,0.768,0.485,0.958,0.690,0.313,0.548,0.515,��,3.3,��
2024/05/10,20:10,0.503,0.766,0.484,0.957,0.693,0.314,0.549,0.514,��쐼,2.8,��
2024/05/10,20:20,0.502,0.766,0.485,0.957,0.691,0.313,0.549,0.514,��,3.4,��
2024/05/10,20:30,0.503,0.768,0.484,0.955,0.691,0.313,0.550,0.514,��,3.8,��
2024/05/10,20:40,0.503,0.766,0.483,0.956,0.692,0.312,0.552,0.515,��쐼,4.4,��
2024/05/10,20:50,0.503,0.764,0.484,0.956,0.692,0.312,0.550,0.513,��,6.6,��
2024/05/10,21:00,0.503,0.766,0.484,0.959,0.692,0.312,0.549,0.514,��,6.3,��
2024/05/10,21:10,0.504,0.766,0.485,0.959,0.691,0.313,0.549,0.514,��,6.8,��
2024/05/10,21:20,0.503,0.766,0.485,0.957,0.692,0.313,0.549,0.514,��,7.3,��
2024/05/10,21:30,0.502,0.766,0.485,0.960,0.692,0.313,0.549,0.514,��,7.2,��
2024/05/10,21:40,0.504,0.765,0.483,0.954,0.690,0.312,0.550,0.514,��,6.6,��
2024/05/10,21:50,0.504,0.766,0.485,0.958,0.692,0.312,0.551,0.513,��,6.1,��
2024/05/10,22:00,0.503,0.768,0.484,0.958,0.694,0.312,0.549,0.514,��,6.0,��
2024/05/10,22:10,0.503,0.766,0.484,0.956,0.690,0.312,0.547,0.515,��,5.9,��
2024/05/10,22:20,0.503,0.767,0.483,0.956,0.690,0.312,0.550,0.514,��,6.9,��
2024/05/10,22:30,0.503,0.769,0.485,0.957,0.689,0.313,0.549,0.514,��쐼,5.7,��
2024/05/10,22:40,0.502,0.768,0.484,0.958,0.691,0.314,0.549,0.513,��쐼,6.3,��
2024/05/10,22:50,0.502,0.766,0.484,0.959,0.690,0.313,0.550,0.512,��,6.0,��
2024/05/10,23:00,0.504,0.767,0.485,0.957,0.691,0.313,0.552,0.513,��,5.8,��
2024/05/10,23:10,0.503,0.766,0.484,0.958,0.690,0.312,0.548,0.513,��쐼,5.1,��
2024/05/10,23:20,0.503,0.766,0.484,0.957,0.689,0.313,0.548,0.514,��,6.0,��
2024/05/10,23:30,0.504,0.766,0.483,0.958,0.690,0.312,0.549,0.514,��쐼,5.2,��
2024/05/10,23:40,0.502,0.765,0.483,0.960,0.689,0.312,0.548,0.513,��쐼,5.1,��
2024/05/10,23:50,0.503,0.766,0.484,0.956,0.690,0.313,0.548,0.514,��,5.2,��
